Simultaneous Nadir Overpasses (SNOs) Predictions

Prediction of SNOs between AURA and NPP Satellite Orbit:

Table of predicted SNOs for the next 14.0 days since TLE Epoch: 2/1/2019
Index Date (AURA) Time (AURA) Lat,Lon (AURA) SZA (AURA ) Date (NPP) Time (NPP) Lat,Lon (NPP) SZA (NPP ) Distance(km) Time Diff (sec)
1 02/02/2019 11:24:59 79.68, -93.02 109.26 02/02/2019 11:24:44 79.69, -92.90 109.25 2.40 15
2 02/02/2019 12:14:22 -79.84, 75.78 70.99 02/02/2019 12:15:25 -79.83, 75.64 71.01 3.02 63
3 02/05/2019 02:52:07 -79.48,-146.20 71.21 02/05/2019 02:50:59 -79.49,-146.20 71.16 0.12 68
4 02/05/2019 03:41:27 79.70, 22.98 108.47 02/05/2019 03:41:37 79.70, 22.90 108.47 1.54 10
5 02/07/2019 19:08:33 -79.61, -29.42 72.20 02/07/2019 19:07:49 -79.62, -29.30 72.19 2.63 44
6 02/07/2019 19:57:53 79.82, 139.78 107.48 02/07/2019 19:58:27 79.82, 139.85 107.44 1.35 34
7 02/10/2019 11:25:02 -79.62, 86.55 73.06 02/10/2019 11:24:43 -79.62, 86.51 73.03 0.79 19
8 02/10/2019 12:14:22 79.83,-104.27 106.63 02/10/2019 12:15:21 79.83,-104.35 106.60 1.78 59
9 02/13/2019 02:52:06 79.54, 34.18 106.22 02/13/2019 02:50:54 79.55, 34.31 106.25 2.81 72
10 02/13/2019 03:41:27 -79.78,-156.42 74.16 02/13/2019 03:41:32 -79.78,-156.29 74.19 2.68 5
11 02/15/2019 19:08:33 79.58, 150.35 105.26 02/15/2019 19:07:46 79.58, 150.37 105.29 0.43 47




NCC Satellite Simultaneous Nadir Overpasses (SNOs) Prediction Service
